Weather observations for the past three days for
Hattiesburg/Laurel, Hattiesburg-Laurel Regional Airport
Metric (Imperial)
Date Time (cdt) Wind (kph) Vis. (km) Weather Sky Cond. Temperature (ºC) Relative Humidity Wind Chill (°C) Heat Index (°C) Pressure Precipitation (cm)
Air Dwpt 6 hour altimeter (cm) sea level (mb) 1 hr 3 hr 6 hr
Max. Min.
21 08:56 SE 15 16.09 Fair CLR 25 21.7 82% 26 76.2 1015.7
21 07:56 SE 7 16.09 A Few Clouds FEW003 22.2 21.7 97% 76.15 1015.0
21 06:56 E 6 1.61 Fog/Mist OVC001 20.6 20.6 21.1 18.9 100% 76.12 1014.5
21 05:56 Calm 1.61 Fog/Mist BKN001 19.4 19.4 100% 76.1 1014.2
21 04:56 Calm 12.87 Fair CLR 18.9 18.9 100% 76.05 1013.6
21 03:56 Calm 12.87 Fair CLR 19.4 19.4 100% 76.02 1013.2
21 02:56 Calm 12.87 Fair CLR 20 20 100% 76 1012.9
21 01:56 SE 6 16.09 Fair CLR 20.6 20.6 100% 76 1013.0
21 00:56 Calm 16.09 Fair CLR 20.6 20 30 20.6 96% 76.05 1013.7
20 23:56 Calm 16.09 Fair CLR 21.7 20.6 94% 76.1 1014.2
20 22:56 Calm 16.09 Fair CLR 22.2 20.6 91% 76.1 1014.2
20 21:56 Calm 16.09 Fair CLR 22.8 20 84% 76.07 1013.8
20 20:56 Calm 16.09 Fair CLR 23.3 20.6 85% 76.02 1013.1
20 19:56 Calm 16.09 Fair CLR 25 21.7 82% 26 76 1012.9
20 18:56 Calm 16.09 Fair CLR 30 18.3 32.2 30 49% 31 75.97 1012.6
20 17:56 N 7 16.09 Fair CLR 31.1 18.3 46% 32 75.97 1012.7
20 16:56 NE 6 16.09 A Few Clouds FEW080 30.6 18.3 48% 32 76 1012.7
20 15:56 SE 6 16.09 Fair CLR 31.1 18.3 46% 32 76 1012.8
20 14:56 NE 9 16.09 Mostly Cloudy BKN060 30.6 18.3 48% 32 76.02 1013.3
20 13:56 E 9 16.09 Partly Cloudy SCT060 30 18.9 51% 31 76.07 1014.0
20 12:56 NE 13 16.09 Fair CLR 30.6 18.9 30.6 20 50% 32 76.12 1014.6
20 11:56 Vrbl 7 16.09 A Few Clouds FEW002 29.4 18.9 53% 31 76.17 1015.3
20 10:56 Vrbl 9 16.09 Partly Cloudy FEW032 SCT055 29.4 20 57% 31 76.17 1015.3
20 09:56 Vrbl 7 16.09 Fair CLR 27.8 21.1 67% 30 76.17 1015.3
20 08:56 Calm 16.09 Fair CLR 26.1 21.7 77% 28 76.17 1015.2
20 07:56 Calm 16.09 Fair CLR 22.8 21.1 90% 76.15 1014.9
20 06:56 Calm 16.09 Fair CLR 20 19.4 20 17.2 96% 76.1 1014.2
20 05:56 Calm 14.48 Fair CLR 17.2 17.2 100% 76.05 1013.4
20 04:56 Calm 14.48 Fair CLR 18.3 18.3 100% 76 1013.0
20 03:56 Calm 16.09 Fair CLR 18.3 18.3 100% 76.05 1013.5
20 02:56 Calm 12.87 Fair CLR 18.3 18.3 100% 76.05 1013.5
20 01:56 Calm 12.87 Fair CLR 18.9 18.9 100% 76.05 1013.6
20 00:56 Calm 16.09 Fair CLR 19.4 19.4 28.9 19.4 100% 76.05 1013.6
19 23:56 Calm 16.09 Fair CLR 20 20 100% 76.07 1013.8
19 22:56 Calm 16.09 Fair CLR 21.1 20.6 97% 76.07 1014.0
19 21:56 Calm 16.09 Fair CLR 22.2 20.6 91% 76.07 1013.7
19 20:56 Calm 16.09 Fair CLR 22.8 21.1 90% 76.02 1013.3
19 19:56 Calm 16.09 Fair CLR 25 21.7 82% 26 76 1012.9
19 18:56 NE 6 16.09 Fair CLR 28.9 20 31.7 28.9 59% 31 76 1012.8
19 17:56 N 9 16.09 A Few Clouds FEW055 30 20 55% 32 76 1012.7
19 16:56 N 9 16.09 Fair CLR 31.1 19.4 50% 33 76.02 1013.1
19 15:56 N 11 16.09 Partly Cloudy SCT049 31.1 20.6 54% 34 76.02 1013.3
19 14:56 N 15 16.09 Fair CLR 31.1 20.6 54% 34 76.07 1014.0
19 13:56 N 7 16.09 Fair CLR 30 19.4 53% 32 76.12 1014.5
19 12:56 N 9 11.27 Fair CLR 30 20.6 30 21.1 57% 32 76.17 1015.1
19 11:56 NW 13 16.09 A Few Clouds FEW036 28.9 20.6 61% 31 76.23 1015.8
19 10:56 N 11 14.48 Fair CLR 28.3 20.6 63% 30 76.25 1016.2
19 09:56 Vrbl 6 9.66 Fair with Haze CLR 26.7 20 67% 28 76.25 1016.3
19 08:56 NE 11 16.09 A Few Clouds FEW002 25 20 74% 26 76.23 1016.1
19 07:56 N 9 16.09 Fair CLR 23.9 20.6 82% 24 76.2 1015.7
19 06:56 N 7 8.05 Fog/Mist CLR 21.1 21.1 22.8 20 100% 76.17 1015.3
19 05:56 Calm 2.82 Fog/Mist CLR 20.6 20.6 100% 76.12 1014.5
19 04:56 Calm 1.61 Fog/Mist CLR 20.6 20.6 100% 76.07 1013.7
19 03:56 Calm 8.05 Fog/Mist CLR 21.1 21.1 100% 76.05 1013.6
19 02:56 S 7 8.05 Fog/Mist BKN042 OVC060 21.7 21.7 100% 76.07 1013.8
19 01:56 Calm 16.09 Overcast BKN047 BKN060 OVC090 22.2 21.7 97% 76.07 1013.9
19 00:56 Vrbl 6 16.09 Fair CLR 22.2 21.1 27.2 22.2 94% 76.05 1013.5
18 23:56 Vrbl 7 16.09 Fair CLR 22.8 21.1 90% 76.05 1013.6
18 22:56 SW 7 16.09 A Few Clouds FEW060 23.3 21.7 91% 76.05 1013.7
18 21:56 SW 6 16.09 Overcast SCT047 OVC060 23.9 21.7 88% 24 76.02 1013.2
18 20:56 SW 7 16.09 Partly Cloudy SCT050 23.3 21.1 88% 75.95 1012.2
18 18:56 Calm 16.09 Fair CLR 27.2 21.1 28.9 26.1 69% 29 75.84 1011.0
18 17:56 Vrbl 7 16.09 A Few Clouds FEW060 28.9 20.6 61% 31 75.84 1010.8
18 16:56 Vrbl 7 16.09 A Few Clouds FEW040 28.3 20.6 63% 30 75.87 1011.3
Date Time (cdt) Wind (kph) Vis. (km) Weather Sky Cond. Air Dwpt Max. Min. Relative Humidity Wind Chill (°C) Heat Index (°C) altimeter (cm) sea level (mb) 1 hr 3 hr 6 hr
6 hour
Temperature (ºC) Pressure Precipitation (cm)